Showing default

SIT-2086, 61764

Orbit data source: Space-Track

SIT-2086, 61764 is a Commonwealth of Independent States-origin payload satellite in SSO that was launched on Mon, 04 Nov 2024 UTC via a SOYUZ-2-1B launch vehicle from the Vostochny Cosmodrome (VOSTO). Payload-class satellites include a variety of spacecraft equipped with specific instruments for various scientific and technological missions. These include communications satellites like Starlink; space stations such as the ISS; scientific satellites like the Hubble; Earth observation satellites from companies like Planet Labs, Umbra, and HawkEye 360; GPS; miniature CubeSats for education and research; and military/defense satellites.

Loading next visibility...
Identifier
61764, 2024-199AF
Orbit
SSO
Country
Flag of CISCIS
Related business
Manufacturer
Sputniks
Mission
Operational Amateur Technology
Bus & Motor
CUBESAT 3U, Unknown motor
Mass
3 kg wet, 3 kg dry
Launch date (UTC)
2024-11-04 (2 years ago)
Launch vehicle
SOYUZ-2-1B
Launch site
Vostochny Cosmodrome (VOSTO)
Object type
Payload
Rocket body
Debris
Shape & HBR
Box, 0.1 m
Radar Cross Section
0.035 m², Small (<0.1 m²)

Expand to show TLE details & history
Last TLE update: 8 hours ago

TLE from 8 hours ago
0 SIT-2086
1 61764U 24199AF  26127.89033090  .00018256  00000-0  32080-3 0  9997
2 61764  97.3002   3.6145 0008508  63.1553 297.0568 15.50517576128189
Epoch: 2026-05-07T21:22Z
TLE epoch observation values (Epoch: 2026-05-07T21:22:04.589Z)
Latitude
-0.00003°
Longitude
177.3654°
Altitude
415.723 km
Speed
7.663 km/s
True Right ascension
00h 14m 27s
True Declination
0° 00' 00"
Sunlit
Object was in daylight at epoch
Visualization orbit readout
Latitude
Unknown
Longitude
Unknown
Altitude
Unknown
Speed
Unknown
Apparent Right ascension
Unknown
Apparent Declination
Unknown
Sunlit
N/A
Visualization observer readout
Local Sidereal Time
13:37:25
Azimuth
Unknown
Elevation
Unknown
Doppler factor
Unknown
Orbital elements
Apogee altitude
417.912 km
Perigee altitude
406.357 km
Semi-major axis
6,790.272 km
Eccentricity
0.00085
Inclination
97.3002°
RAAN
3.6145°
Arg. of periapsis
63.1553°
True anomaly
296.96993°
Mean anomaly
297.0568°
Eccentric anomaly
297.01337°
Mean motion
3.87893 °/min
Orbital period
92.81 mins
BSTAR
0.0003208
Loading maneuver chart data...
Computing Atmospheric mass density...
Loading historical data...
Loading historical data...
Loading historical data...
Loading historical data...
Loading historical data...
Loading historical data...
Loading historical data...

Documentation

Showing up to 5 results
|